Regional Weather Roundup
Issued by NWS Sioux Falls, SD

Home | Current Version | Previous Version | Text Only | Print | Product List | Glossary Off
Versions: 1 2 3 4 5 6 7 8 9 10 11 12 13 14 15 16 17 18 19 20 21 22 23 24 25 26 27 28 29 30 31 32 33 34 35 36 37 38 39 40 41 42 43 44 45 46 47 48 49 50

000
ASUS43 KFSD 251402
RWRFSD

WEATHER ROUNDUP FOR SE SOUTH DAKOTA/SW MINNESOTA/NW IOWA
NATIONAL WEATHER SERVICE SIOUX FALLS SD
900 AM CDT THU AUG 25 2016

NOTE: "FAIR" INDICATES FEW OR NO CLOUDS BELOW 12,000 FEET WITH NO
SIGNIFICANT WEATHER AND OR OBSTRUCTIONS TO VISIBILITY.


SDZ038>040-050-052>070-251500-
SOUTHEAST SOUTH DAKOTA

CITY           SKY/WX    TMP DP  RH WIND       PRES   REMARKS
BROOKINGS      PTSUNNY   57  53  86 NW12      30.11F
CHAMBERLAIN    MOSUNNY   58  51  76 NW12      30.20S
HURON          MOSUNNY   58  50  75 NW13      30.15R
MADISON        FAIR      55  55 100 NW12      30.13S
MITCHELL       MOSUNNY   57  51  80 NW8       30.17R
SIOUX FALLS    CLOUDY    61  53  75 N10       30.13R
WINNER         FAIR      58  49  72 NW12      30.23R
YANKTON        CLOUDY    59  50  72 NW13      30.14R
$$

MNZ071-072-080-081-089-090-097-098-251500-
SOUTHWEST MINNESOTA

CITY           SKY/WX    TMP DP  RH WIND       PRES   REMARKS
FAIRMONT       SUNNY     65  57  75 NW10      30.08R
JACKSON        MOSUNNY   63  52  67 NW9       30.10R
LUVERNE        CLOUDY    59  52  77 N7        30.12R
MARSHALL       MOSUNNY   60  53  77 NW13      30.09S
MONTEVIDEO     MOSUNNY   61  55  82 NW10      30.09S
REDWOOD FALLS  CLOUDY    61  54  77 NW10      30.07R
TRACY          MOSUNNY   62  54  74 NW7       30.10S
WINDOM         MOSUNNY   63  54  72 NW8       30.10R
WORTHINGTON    MOSUNNY   61  55  81 NW6       30.11R
$$

IAZ001>003-012>014-020>022-031-032-NEZ013-014-SDZ071-251500-
NORTHWEST IOWA

CITY           SKY/WX    TMP DP  RH WIND       PRES   REMARKS
CHEROKEE       CLOUDY    63  60  90 CALM      30.11R
DENISON        CLOUDY    59  59 100 CALM      30.10S
ESTHERVILLE    SUNNY     65  60  84 NW10      30.08R
LE MARS        CLOUDY    61  59  94 CALM      30.13R
ORANGE CITY    CLOUDY    61  57  88 NW3       30.12R
SHELDON        PTSUNNY   61  59  94 VRB3      30.10R
SIOUX CITY     CLOUDY    61  58  90 W6        30.12R
SPENCER        MOSUNNY   63  58  83 NW7       30.10R
STORM LAKE     MOSUNNY   66  57  72 CALM      30.12R
$$

ABBREVIATIONS USED IN REMARKS
   TC - TEMPERATURE IN CELSIUS
  WCI - WIND CHILL INDEX
   HX - HEAT INDEX
  VSB - VISIBILITY





USA.gov is the U.S. government's official web portal to all federal, state and local government web resources and services.